Location: Cerda�ola
(41.4919°N, 2.1403°E)
Time: 01:45:07
(UTC+00:00)

NOSS 3-1 (A) - Pass Details

Date: 29 March 2020
Orbit: 757 x 1455 km, 63.4° (Epoch: 25 May)

Event Time Altitude Azimuth Distance (km) Brightness Sun altitude
Rises 18:23:04 0° 325° (NW) 3,996 7.4 -2.5°
Reaches altitude 10° 18:25:37 10° 326° (NW) 3,124 6.8 -3.0°
Maximum altitude 18:33:20 85° 54° (NE) 1,335 4.2 -4.4°
Drops below altitude 10° 18:42:07 10° 145° (SE) 3,524 6.0 -6.1°
Sets 18:45:09 0° 146° (SE) 4,529 6.5 -6.6°
